Simultaneous Nadir Overpasses (SNOs) Predictions

Prediction of SNOs between AQUA and GOES-15 Satellite Orbit:

Table of predicted SNOs for the next 14.0 days since TLE Epoch: 9/2/2023
Index Date Time (AQUA) AQUA Lat,Lon GOES-15 Lat,Lon Distance(km) Time Diff (sec)
1 09/03/2023 05:12:55 0.42, 130.00 -0.40, 126.31 420.63 80
2 09/03/2023 17:33:37 0.56, 124.98 0.39, 125.81 94.83 80
3 09/06/2023 05:40:07 -0.32, 123.35 -0.39, 123.16 22.48 80
4 09/06/2023 18:00:49 1.28, 118.32 0.38, 122.65 491.90 80
5 09/08/2023 17:46:27 0.13, 121.77 0.38, 120.56 136.79 80
6 09/09/2023 06:07:16 -1.10, 116.71 -0.37, 119.99 374.09 80
7 09/11/2023 05:52:54 0.10, 120.15 -0.37, 117.88 256.95 80
8 09/11/2023 18:13:36 0.85, 115.11 0.36, 117.36 256.05 80
9 09/13/2023 17:59:13 -0.33, 118.56 0.36, 115.25 376.06 80
10 09/14/2023 06:20:03 -0.62, 113.50 -0.35, 114.68 134.40 80
